Location: Azul
(36.7830°S, 59.8500°W)
Time: 01:26:25
(UTC-03:00)

DELFI C3 - Pass Details

Date: 30 October 2021
Orbit: 529 x 543 km, 97.4° (Epoch: 30 November)

Event Time Altitude Azimuth Distance (km) Brightness Sun altitude
Rises 22:09:54 0° 194° (SSW) 2,731 ? -27.6°
Reaches altitude 10° 22:13:39 10° 231° (SW) 1,821 ? -28.1°
Maximum altitude 22:14:38 11° 246° (WSW) 1,764 ? -28.3°
Drops below altitude 10° 22:15:37 10° 260° (W) 1,812 ? -28.4°
Sets 22:19:18 0° 298° (WNW) 2,686 ? -28.9°
